Location: Wellington
(41.3000°S, 174.7830°E)
Time: 20:11:12
(UTC+12:00)

Cosmos 1709 Rocket - Pass Details

Date: 24 January 2019
Orbit: 947 x 1003 km, 82.9° (Epoch: 21 April)

Event Time Altitude Azimuth Distance (km) Brightness Sun altitude
Exits shadow 23:14:37 40° 30° (NNE) 1,414 4.3 -21.5°
Maximum altitude 23:16:43 60° 88° (E) 1,127 4.1 -21.7°
Drops below altitude 10° 23:22:53 10° 165° (SSE) 2,744 6.9 -22.4°
Sets 23:25:25 0° 168° (SSE) 3,690 7.7 -22.7°
